カタログに戻る

COSMOS 1492

GLONASS

運用中ナビゲーションMEO
NORAD 14260·PAYLOAD·🇷🇺 Russia

打ち上げ Aug 10, 1983 から Baikonur Cosmodrome

Loading…

次のパス (今後24時間)

TLE

最新Source: Space-Track

元期: Sep 10, 2026, 03:24 UTC

1 14260U 83084C   26253.14173145  .00000023  00000-0  00000-0 0  9995
2 14260  64.8642  71.6494 0001562  30.8055 157.6103  2.12758812333380

AllMySatでCOSMOS 1492をリアルタイム追跡

Download on the App Store